Terminal Aerodrome Forecast
Issued by NWS St Louis, MO

Home | Current Version | Previous Version | Text Only | Print | Product List | Glossary On
Versions: 1 2 3 4 5 6 7 8 9 10 11 12 13 14 15 16 17 18
000
FTUS43 KLSX 220227 AAA
TAFCOU
TAF AMD
KCOU 220227Z 2202/2224 00000KT P6SM OVC110
     FM220500 03006KT 6SM -SHRA VCTS OVC080CB
      TEMPO 2205/2207 5SM -TSRA BKN040CB
     FM220800 06005KT 4SM BR VCSH OVC040
     FM221000 05005KT 3SM BR VCSH OVC015
     FM221500 36012G22KT 6SM BR OVC030
     FM221800 35014G22KT P6SM BKN050=

USA.gov is the U.S. government's official web portal to all federal, state and local government web resources and services.